Location: Newark
(48.6461°N, 4.3644°W)
Time: 12:08:08
(UTC+00:00)

Transit 4A - Pass Details

Date: 24 January 2020
Orbit: 872 x 973 km, 66.8° (Epoch: 28 February)

Event Time Altitude Azimuth Distance (km) Brightness Sun altitude
Rises 05:54:26 0° 171° (S) 3,548 11.1 -20.1°
Reaches altitude 10° 05:57:28 10° 157° (SSE) 2,592 10.6 -19.6°
Maximum altitude 06:02:01 23° 108° (ESE) 1,823 10.3 -18.8°
Drops below altitude 10° 06:06:29 10° 58° (ENE) 2,558 10.9 -18.1°
Sets 06:09:27 0° 45° (NE) 3,490 11.4 -17.6°
